Location: Newark
(12.4436°N, 0.6167°W)
Time: 10:35:55
(UTC+00:00)

deb Explorer IX - Pass Details

Date: 15 December 2019
Orbit: 548 x 1101 km, 38.8° (Epoch: 21 January)

Event Time Altitude Azimuth Distance (km) Brightness Sun altitude
Rises 19:50:29 0° 324° (NW) 3,641 ? -30.6°
Reaches altitude 10° 19:53:26 10° 336° (NNW) 2,771 ? -31.3°
Enters shadow 19:54:35 15° 342° (NNW) 2,473 ? -31.6°
Maximum altitude 19:59:13 29° 34° (NNE) 1,849 - -32.6°
Drops below altitude 10° 20:05:19 10° 91° (E) 2,944 - -34.0°
Sets 20:08:32 0° 102° (ESE) 3,906 - -34.8°
